[Date Prev][Date Next][Thread Prev][Thread Next] - [Date Index][Thread Index][Author Index]
2 Line ISS Keps 6-4
- Subject: [sarex] 2 Line ISS Keps 6-4
- From: "Dave Larsen PhD" <doc@xxxxxxxxxxx>
- Date: Tue, 4 Jun 2002 05:44:11 -0700
ISS
1 25544U 98067A 02155.46759259 .00030656 00000-0 37090-3 0 5280
2 25544 51.6356 116.8638 0006445 148.9146 356.5570 15.60391033202043
----
Via the sarex mailing list at AMSAT.ORG courtesy of AMSAT-NA.
To unsubscribe, send "unsubscribe sarex" to Majordomo@amsat.org
AMSAT Home